P/2004 F1 ( NEAT )

Japanese version
Home page
Updated on July 17, 2004

---------------------------------------------------------------------

* Profile

Discovery Date March 18, 2004
Magnitude 18.9 mag
Discoverer Near-Earth-Asteroid Tracking Team (Jet Propulsion Laboratory)

* Orbital Elements

Epoch 2003 Oct. 8.0 TT = JDT 2452920.5
T 2003 Oct. 19.76926 TT                                 MPC
q   2.4506711            (2000.0)            P               Q
n   0.10432156     Peri.   26.36346     -0.72557355     -0.62364278
a   4.4690992      Node   111.91145     +0.56292123     -0.78103640
e   0.4516409      Incl.   18.27219     +0.39580641     -0.03243183
P   9.45

* Finding Charts

* Magnitudes Graph

        m1 = 9 + 5 log d + 20 log r

---------------------------------------------------------------------

The orbital elements are published on M.P.E.C. 2004-G37.
The charts are made with StellaNavigator Ver.2.0 for Windows (AstroArts / ASCII).
The magnitudes graphs are made with Comet for Windows.

---------------------------------------------------------------------

Copyright(C) Seiichi Yoshida (comet@aerith.net). All rights reserved.